Time,TemperatureF,DewpointF,PressureIn,WindDirection,WindDirectionDegrees,WindSpeedMPH,WindSpeedGustMPH,Humidity,HourlyPrecipIn,Conditions,Clouds,dailyrainin,SoftwareType,DateUTC
2013-03-16 00:00:00,42.5,36.4,30.02,West,277,0.0,0.0,79,0.00,,,0.00,Wunderground v.1.15,2013-03-16 04:00:00,
2013-03-16 00:05:00,42.4,36.3,30.02,West,277,0.0,1.0,79,0.00,,,0.00,Wunderground v.1.15,2013-03-16 04:05:00,
2013-03-16 00:10:00,42.3,36.3,30.02,West,277,0.0,1.0,79,0.00,,,0.00,Wunderground v.1.15,2013-03-16 04:10:00,
2013-03-16 00:15:00,42.1,36.1,30.02,West,277,0.0,1.0,79,0.00,,,0.00,Wunderground v.1.15,2013-03-16 04:15:00,
2013-03-16 00:25:00,41.9,35.9,30.02,West,277,0.0,0.0,79,0.00,,,0.00,Wunderground v.1.15,2013-03-16 04:25:00,
2013-03-16 00:35:00,41.7,36.0,30.02,West,277,0.0,0.0,80,0.00,,,0.00,Wunderground v.1.15,2013-03-16 04:35:00,
2013-03-16 00:40:00,41.6,35.9,30.02,West,277,0.0,0.0,80,0.00,,,0.00,Wunderground v.1.15,2013-03-16 04:40:00,
2013-03-16 00:50:00,41.5,36.1,30.01,West,277,0.0,0.0,81,0.00,,,0.00,Wunderground v.1.15,2013-03-16 04:50:00,
2013-03-16 01:00:00,41.4,36.0,30.01,West,277,0.0,0.0,81,0.00,,,0.00,Wunderground v.1.15,2013-03-16 05:00:00,
2013-03-16 01:05:00,41.4,36.0,30.01,West,277,0.0,1.0,81,0.00,,,0.00,Wunderground v.1.15,2013-03-16 05:05:00,
2013-03-16 01:10:00,41.3,35.9,30.01,West,277,0.0,1.0,81,0.00,,,0.00,Wunderground v.1.15,2013-03-16 05:10:00,
2013-03-16 01:20:00,41.3,36.2,30.01,West,277,0.0,0.0,82,0.00,,,0.00,Wunderground v.1.15,2013-03-16 05:20:00,
2013-03-16 01:25:00,41.3,36.2,30.00,West,277,0.0,0.0,82,0.00,,,0.00,Wunderground v.1.15,2013-03-16 05:25:00,
2013-03-16 01:35:00,41.5,36.4,30.00,West,277,0.0,0.0,82,0.00,,,0.00,Wunderground v.1.15,2013-03-16 05:35:00,
2013-03-16 01:45:00,41.4,36.3,30.00,West,277,0.0,0.0,82,0.00,,,0.00,Wunderground v.1.15,2013-03-16 05:45:00,
2013-03-16 01:55:00,41.3,36.5,29.99,West,277,0.0,0.0,83,0.00,,,0.00,Wunderground v.1.15,2013-03-16 05:55:00,
2013-03-16 02:00:00,41.2,36.4,29.99,West,277,0.0,0.0,83,0.00,,,0.00,Wunderground v.1.15,2013-03-16 06:00:00,
2013-03-16 02:05:00,41.1,36.3,29.99,West,277,0.0,1.0,83,0.00,,,0.00,Wunderground v.1.15,2013-03-16 06:05:00,
2013-03-16 02:15:00,41.1,36.6,29.99,West,277,0.0,1.0,84,0.00,,,0.00,Wunderground v.1.15,2013-03-16 06:15:00,
2013-03-16 02:25:00,41.2,36.7,29.99,West,277,0.0,0.0,84,0.00,,,0.00,Wunderground v.1.15,2013-03-16 06:25:00,
2013-03-16 02:35:00,41.2,37.0,29.99,West,277,0.0,0.0,85,0.00,,,0.00,Wunderground v.1.15,2013-03-16 06:35:00,
2013-03-16 02:45:00,41.2,37.0,29.98,West,277,0.0,0.0,85,0.00,,,0.00,Wunderground v.1.15,2013-03-16 06:45:00,
2013-03-16 02:50:00,41.2,37.0,29.98,West,277,0.0,0.0,85,0.00,,,0.00,Wunderground v.1.15,2013-03-16 06:50:00,
2013-03-16 03:00:00,41.4,37.2,29.98,West,277,0.0,0.0,85,0.00,,,0.00,Wunderground v.1.15,2013-03-16 07:00:00,
2013-03-16 03:10:00,41.5,37.3,29.98,West,277,0.0,1.0,85,0.00,,,0.00,Wunderground v.1.15,2013-03-16 07:10:00,
2013-03-16 03:20:00,41.7,37.5,29.98,West,277,0.0,0.0,85,0.00,,,0.00,Wunderground v.1.15,2013-03-16 07:20:00,
2013-03-16 03:25:00,41.8,37.6,29.98,West,277,0.0,0.0,85,0.00,,,0.00,Wunderground v.1.15,2013-03-16 07:25:00,
2013-03-16 03:35:00,41.8,37.6,29.97,West,277,0.0,0.0,85,0.00,,,0.00,Wunderground v.1.15,2013-03-16 07:35:00,
2013-03-16 03:45:00,41.7,37.5,29.97,West,277,0.0,0.0,85,0.00,,,0.00,Wunderground v.1.15,2013-03-16 07:45:00,
2013-03-16 03:50:00,41.6,37.7,29.97,West,277,0.0,0.0,86,0.00,,,0.00,Wunderground v.1.15,2013-03-16 07:50:00,
2013-03-16 04:00:00,41.2,37.6,29.97,West,277,0.0,0.0,87,0.00,,,0.00,Wunderground v.1.15,2013-03-16 08:00:00,
2013-03-16 04:05:00,41.1,37.5,29.96,West,277,0.0,0.0,87,0.00,,,0.00,Wunderground v.1.15,2013-03-16 08:05:00,
2013-03-16 04:15:00,41.0,37.7,29.96,West,277,0.0,0.0,88,0.00,,,0.00,Wunderground v.1.15,2013-03-16 08:15:00,
2013-03-16 04:25:00,40.9,37.6,29.96,West,277,0.0,1.0,88,0.00,,,0.00,Wunderground v.1.15,2013-03-16 08:25:00,
2013-03-16 04:35:00,40.8,37.8,29.95,West,277,0.0,0.0,89,0.00,,,0.00,Wunderground v.1.15,2013-03-16 08:35:00,
2013-03-16 04:40:00,40.7,37.7,29.96,West,277,0.0,0.0,89,0.00,,,0.00,Wunderground v.1.15,2013-03-16 08:40:00,
2013-03-16 04:50:00,40.8,37.8,29.95,West,277,0.0,0.0,89,0.00,,,0.00,Wunderground v.1.15,2013-03-16 08:50:00,
2013-03-16 05:00:00,40.9,38.2,29.95,West,277,0.0,0.0,90,0.00,,,0.00,Wunderground v.1.15,2013-03-16 09:00:00,
2013-03-16 05:05:00,41.0,38.3,29.95,West,277,0.0,0.0,90,0.00,,,0.00,Wunderground v.1.15,2013-03-16 09:05:00,
2013-03-16 05:15:00,41.3,38.6,29.95,West,277,0.0,0.0,90,0.00,,,0.00,Wunderground v.1.15,2013-03-16 09:15:00,
2013-03-16 05:25:00,41.5,39.1,29.95,West,277,0.0,0.0,91,0.00,,,0.00,Wunderground v.1.15,2013-03-16 09:25:00,
2013-03-16 05:35:00,41.6,38.9,29.95,West,277,0.0,0.0,90,0.00,,,0.00,Wunderground v.1.15,2013-03-16 09:35:00,
2013-03-16 05:40:00,41.7,39.3,29.95,West,277,0.0,0.0,91,0.00,,,0.00,Wunderground v.1.15,2013-03-16 09:40:00,
2013-03-16 05:45:00,41.7,39.0,29.95,West,277,0.0,0.0,90,0.00,,,0.00,Wunderground v.1.15,2013-03-16 09:45:00,
2013-03-16 05:55:00,42.1,39.7,29.95,West,277,0.0,0.0,91,0.00,,,0.00,Wunderground v.1.15,2013-03-16 09:55:00,
2013-03-16 06:05:00,42.2,39.8,29.95,West,277,0.0,1.0,91,0.00,,,0.00,Wunderground v.1.15,2013-03-16 10:05:00,
2013-03-16 06:15:00,42.5,40.1,29.94,West,277,0.0,1.0,91,0.00,,,0.00,Wunderground v.1.15,2013-03-16 10:15:00,
2013-03-16 06:20:00,42.7,40.0,29.95,West,277,0.0,0.0,90,0.00,,,0.00,Wunderground v.1.15,2013-03-16 10:20:00,
2013-03-16 06:30:00,43.3,40.3,29.95,West,277,0.0,0.0,89,0.00,,,0.00,Wunderground v.1.15,2013-03-16 10:30:00,
2013-03-16 06:40:00,44.0,41.3,29.95,West,277,0.0,0.0,90,0.00,,,0.00,Wunderground v.1.15,2013-03-16 10:40:00,
2013-03-16 06:45:00,44.3,41.6,29.95,West,277,0.0,0.0,90,0.00,,,0.00,Wunderground v.1.15,2013-03-16 10:45:00,
2013-03-16 06:50:00,44.4,41.7,29.95,West,277,0.0,0.0,90,0.00,,,0.00,Wunderground v.1.15,2013-03-16 10:50:00,
2013-03-16 07:00:00,45.0,42.0,29.96,West,277,0.0,0.0,89,0.00,,,0.00,Wunderground v.1.15,2013-03-16 11:00:00,
2013-03-16 07:10:00,45.2,41.9,29.96,West,277,0.0,0.0,88,0.00,,,0.00,Wunderground v.1.15,2013-03-16 11:10:00,
2013-03-16 07:20:00,45.6,41.7,29.96,West,277,0.0,0.0,86,0.00,,,0.00,Wunderground v.1.15,2013-03-16 11:20:00,
2013-03-16 07:30:00,46.7,42.4,29.97,West,277,0.0,0.0,85,0.00,,,0.00,Wunderground v.1.15,2013-03-16 11:30:00,
2013-03-16 07:35:00,47.2,42.6,29.97,West,277,0.0,0.0,84,0.00,,,0.00,Wunderground v.1.15,2013-03-16 11:35:00,
2013-03-16 07:45:00,47.6,42.7,29.96,SW,221,0.0,0.0,83,0.00,,,0.00,Wunderground v.1.15,2013-03-16 11:45:00,
2013-03-16 07:55:00,49.1,42.9,29.96,WNW,282,0.0,0.0,79,0.00,,,0.00,Wunderground v.1.15,2013-03-16 11:55:00,
2013-03-16 08:05:00,50.3,43.7,29.95,West,274,0.0,0.0,78,0.00,,,0.00,Wunderground v.1.15,2013-03-16 12:05:00,
2013-03-16 08:15:00,51.6,43.9,29.95,ESE,103,0.0,1.0,75,0.00,,,0.00,Wunderground v.1.15,2013-03-16 12:15:00,
2013-03-16 08:20:00,52.1,44.1,29.95,West,273,0.0,0.0,74,0.00,,,0.00,Wunderground v.1.15,2013-03-16 12:20:00,
2013-03-16 08:30:00,52.9,44.1,29.95,WNW,295,1.0,1.0,72,0.00,,,0.00,Wunderground v.1.15,2013-03-16 12:30:00,
2013-03-16 08:40:00,54.1,44.5,29.95,North,5,1.0,1.0,70,0.00,,,0.00,Wunderground v.1.15,2013-03-16 12:40:00,
2013-03-16 08:50:00,54.9,44.5,29.95,NNW,329,2.0,6.0,68,0.00,,,0.00,Wunderground v.1.15,2013-03-16 12:50:00,
2013-03-16 08:55:00,55.2,44.8,29.95,WNW,298,2.0,6.0,68,0.00,,,0.00,Wunderground v.1.15,2013-03-16 12:55:00,
2013-03-16 09:00:00,55.5,45.1,29.95,NW,304,2.0,4.0,68,0.00,,,0.00,Wunderground v.1.15,2013-03-16 13:00:00,
2013-03-16 09:10:00,56.1,44.9,29.95,WNW,291,3.0,3.0,66,0.00,,,0.00,Wunderground v.1.15,2013-03-16 13:10:00,
2013-03-16 09:20:00,56.6,45.4,29.95,NW,304,3.0,3.0,66,0.00,,,0.00,Wunderground v.1.15,2013-03-16 13:20:00,
2013-03-16 09:30:00,57.1,45.4,29.95,WNW,300,3.0,3.0,65,0.00,,,0.00,Wunderground v.1.15,2013-03-16 13:30:00,
2013-03-16 09:40:00,57.5,45.4,29.95,WNW,298,3.0,3.0,64,0.00,,,0.00,Wunderground v.1.15,2013-03-16 13:40:00,
2013-03-16 09:50:00,57.9,45.4,29.95,West,270,3.0,3.0,63,0.00,,,0.00,Wunderground v.1.15,2013-03-16 13:50:00,
2013-03-16 10:00:00,58.4,45.8,29.95,West,274,3.0,3.0,63,0.00,,,0.00,Wunderground v.1.15,2013-03-16 14:00:00,
2013-03-16 10:05:00,58.6,45.6,29.95,WNW,291,4.0,4.0,62,0.00,,,0.00,Wunderground v.1.15,2013-03-16 14:05:00,
2013-03-16 10:15:00,58.8,45.8,29.95,WNW,297,4.0,5.0,62,0.00,,,0.00,Wunderground v.1.15,2013-03-16 14:15:00,
2013-03-16 10:20:00,58.9,45.9,29.95,WNW,287,4.0,6.0,62,0.00,,,0.00,Wunderground v.1.15,2013-03-16 14:20:00,
2013-03-16 10:25:00,59.0,45.6,29.95,NNW,331,4.0,6.0,61,0.00,,,0.00,Wunderground v.1.15,2013-03-16 14:25:00,
2013-03-16 10:35:00,59.2,45.8,29.94,WNW,297,3.0,7.0,61,0.00,,,0.00,Wunderground v.1.15,2013-03-16 14:35:00,
2013-03-16 10:40:00,59.2,45.8,29.94,WNW,286,4.0,4.0,61,0.00,,,0.00,Wunderground v.1.15,2013-03-16 14:40:00,
2013-03-16 10:50:00,59.8,46.3,29.94,WNW,293,4.0,4.0,61,0.00,,,0.00,Wunderground v.1.15,2013-03-16 14:50:00,
2013-03-16 10:55:00,60.4,46.9,29.93,NW,309,3.0,4.0,61,0.00,,,0.00,Wunderground v.1.15,2013-03-16 14:55:00,
2013-03-16 11:05:00,61.9,46.5,29.93,NW,308,3.0,9.0,57,0.00,,,0.00,Wunderground v.1.15,2013-03-16 15:05:00,
2013-03-16 11:15:00,63.5,47.0,29.92,West,270,5.0,5.0,55,0.00,,,0.00,Wunderground v.1.15,2013-03-16 15:15:00,
2013-03-16 11:25:00,63.9,46.4,29.92,NW,313,4.0,6.0,53,0.00,,,0.00,Wunderground v.1.15,2013-03-16 15:25:00,
2013-03-16 11:35:00,64.2,47.2,29.92,WNW,287,4.0,7.0,54,0.00,,,0.00,Wunderground v.1.15,2013-03-16 15:35:00,
2013-03-16 11:40:00,64.4,46.4,29.92,West,276,3.0,4.0,52,0.00,,,0.00,Wunderground v.1.15,2013-03-16 15:40:00,
2013-03-16 11:45:00,64.8,47.3,29.92,WNW,292,4.0,7.0,53,0.00,,,0.00,Wunderground v.1.15,2013-03-16 15:45:00,
2013-03-16 11:55:00,65.8,46.6,29.91,WNW,285,5.0,11.0,50,0.00,,,0.00,Wunderground v.1.15,2013-03-16 15:55:00,
2013-03-16 12:05:00,66.9,49.2,29.91,WSW,250,5.0,10.0,53,0.00,,,0.00,Wunderground v.1.15,2013-03-16 16:05:00,
2013-03-16 12:10:00,67.8,47.4,29.90,NW,312,4.0,10.0,48,0.00,,,0.00,Wunderground v.1.15,2013-03-16 16:10:00,
2013-03-16 12:15:00,67.8,47.4,29.90,WNW,298,4.0,10.0,48,0.00,,,0.00,Wunderground v.1.15,2013-03-16 16:15:00,
2013-03-16 12:25:00,67.3,47.5,29.90,WNW,298,6.0,10.0,49,0.00,,,0.00,Wunderground v.1.15,2013-03-16 16:25:00,
2013-03-16 12:30:00,67.8,47.4,29.90,WNW,285,5.0,5.0,48,0.00,,,0.00,Wunderground v.1.15,2013-03-16 16:30:00,
2013-03-16 12:40:00,68.4,47.9,29.90,WNW,284,5.0,8.0,48,0.00,,,0.00,Wunderground v.1.15,2013-03-16 16:40:00,
2013-03-16 12:45:00,69.0,48.5,29.90,West,267,6.0,15.0,48,0.00,,,0.00,Wunderground v.1.15,2013-03-16 16:45:00,
2013-03-16 12:50:00,69.2,46.9,29.90,WNW,285,6.0,6.0,45,0.00,,,0.00,Wunderground v.1.15,2013-03-16 16:50:00,
2013-03-16 13:00:00,69.6,49.0,29.89,West,281,8.0,8.0,48,0.00,,,0.00,Wunderground v.1.15,2013-03-16 17:00:00,
2013-03-16 13:10:00,70.6,48.2,29.89,NW,319,5.0,13.0,45,0.00,,,0.00,Wunderground v.1.15,2013-03-16 17:10:00,
2013-03-16 13:15:00,71.1,46.8,29.89,WNW,295,5.0,13.0,42,0.00,,,0.00,Wunderground v.1.15,2013-03-16 17:15:00,
2013-03-16 13:25:00,71.9,46.9,29.88,WNW,283,6.0,7.0,41,0.00,,,0.00,Wunderground v.1.15,2013-03-16 17:25:00,
2013-03-16 13:35:00,72.4,48.6,29.88,WNW,288,7.0,7.0,43,0.00,,,0.00,Wunderground v.1.15,2013-03-16 17:35:00,
2013-03-16 13:45:00,73.0,49.2,29.87,WNW,291,6.0,8.0,43,0.00,,,0.00,Wunderground v.1.15,2013-03-16 17:45:00,
2013-03-16 13:50:00,73.1,49.3,29.87,West,260,5.0,7.0,43,0.00,,,0.00,Wunderground v.1.15,2013-03-16 17:50:00,
2013-03-16 14:00:00,73.2,48.1,29.86,WNW,288,5.0,8.0,41,0.00,,,0.00,Wunderground v.1.15,2013-03-16 18:00:00,
2013-03-16 14:10:00,73.6,47.8,29.86,WNW,291,5.0,15.0,40,0.00,,,0.00,Wunderground v.1.15,2013-03-16 18:10:00,
2013-03-16 14:15:00,73.5,47.7,29.86,WNW,290,6.0,15.0,40,0.00,,,0.00,Wunderground v.1.15,2013-03-16 18:15:00,
2013-03-16 14:25:00,73.9,47.4,29.85,WNW,302,4.0,10.0,39,0.00,,,0.00,Wunderground v.1.15,2013-03-16 18:25:00,
2013-03-16 14:30:00,74.3,47.0,29.85,WSW,250,4.0,4.0,38,0.00,,,0.00,Wunderground v.1.15,2013-03-16 18:30:00,
2013-03-16 14:40:00,74.8,48.2,29.85,WNW,287,4.0,6.0,39,0.00,,,0.00,Wunderground v.1.15,2013-03-16 18:40:00,
2013-03-16 14:50:00,75.5,48.1,29.84,WSW,239,4.0,4.0,38,0.00,,,0.00,Wunderground v.1.15,2013-03-16 18:50:00,
2013-03-16 14:55:00,75.5,47.4,29.84,NW,310,4.0,4.0,37,0.00,,,0.00,Wunderground v.1.15,2013-03-16 18:55:00,
2013-03-16 15:05:00,75.5,48.1,29.83,WNW,290,4.0,5.0,38,0.00,,,0.00,Wunderground v.1.15,2013-03-16 19:05:00,
2013-03-16 15:15:00,76.1,48.6,29.83,WNW,289,4.0,4.0,38,0.00,,,0.00,Wunderground v.1.15,2013-03-16 19:15:00,
2013-03-16 15:20:00,76.4,48.9,29.82,WNW,296,3.0,4.0,38,0.00,,,0.00,Wunderground v.1.15,2013-03-16 19:20:00,
2013-03-16 15:30:00,76.4,47.5,29.82,NW,314,6.0,7.0,36,0.00,,,0.00,Wunderground v.1.15,2013-03-16 19:30:00,
2013-03-16 15:35:00,76.4,46.7,29.82,West,274,7.0,10.0,35,0.00,,,0.00,Wunderground v.1.15,2013-03-16 19:35:00,
2013-03-16 15:45:00,76.5,49.0,29.81,WNW,297,7.0,9.0,38,0.00,,,0.00,Wunderground v.1.15,2013-03-16 19:45:00,
2013-03-16 15:55:00,77.2,47.4,29.82,West,270,5.0,6.0,35,0.00,,,0.00,Wunderground v.1.15,2013-03-16 19:55:00,
2013-03-16 16:00:00,76.9,48.6,29.81,WNW,303,6.0,6.0,37,0.00,,,0.00,Wunderground v.1.15,2013-03-16 20:00:00,
2013-03-16 16:10:00,77.0,47.2,29.81,NW,314,6.0,6.0,35,0.00,,,0.00,Wunderground v.1.15,2013-03-16 20:10:00,
2013-03-16 16:20:00,77.0,46.5,29.81,WNW,291,6.0,6.0,34,0.00,,,0.00,Wunderground v.1.15,2013-03-16 20:20:00,
2013-03-16 16:30:00,76.5,46.8,29.81,WNW,298,6.0,6.0,35,0.00,,,0.00,Wunderground v.1.15,2013-03-16 20:30:00,
2013-03-16 16:40:00,76.3,47.4,29.80,West,279,5.0,5.0,36,0.00,,,0.00,Wunderground v.1.15,2013-03-16 20:40:00,
2013-03-16 16:50:00,76.6,48.4,29.80,WNW,302,6.0,6.0,37,0.00,,,0.00,Wunderground v.1.15,2013-03-16 20:50:00,
2013-03-16 16:55:00,76.9,47.2,29.80,NW,304,5.0,6.0,35,0.00,,,0.00,Wunderground v.1.15,2013-03-16 20:55:00,
2013-03-16 17:05:00,76.9,47.9,29.80,NW,305,5.0,17.0,36,0.00,,,0.00,Wunderground v.1.15,2013-03-16 21:05:00,
2013-03-16 17:10:00,76.6,47.6,29.80,WNW,302,5.0,5.0,36,0.00,,,0.00,Wunderground v.1.15,2013-03-16 21:10:00,
2013-03-16 17:20:00,76.0,47.1,29.79,SSW,211,5.0,5.0,36,0.00,,,0.00,Wunderground v.1.15,2013-03-16 21:20:00,
2013-03-16 17:30:00,75.6,47.5,29.79,WNW,293,5.0,6.0,37,0.00,,,0.00,Wunderground v.1.15,2013-03-16 21:30:00,
2013-03-16 17:35:00,75.5,46.7,29.79,WNW,288,5.0,6.0,36,0.00,,,0.00,Wunderground v.1.15,2013-03-16 21:35:00,
2013-03-16 17:45:00,75.7,46.1,29.78,WNW,290,5.0,6.0,35,0.00,,,0.00,Wunderground v.1.15,2013-03-16 21:45:00,
2013-03-16 17:55:00,76.0,46.4,29.78,NW,317,4.0,8.0,35,0.00,,,0.00,Wunderground v.1.15,2013-03-16 21:55:00,
2013-03-16 18:05:00,75.8,46.2,29.78,West,277,4.0,7.0,35,0.00,,,0.00,Wunderground v.1.15,2013-03-16 22:05:00,
2013-03-16 18:10:00,75.7,46.8,29.78,WNW,285,3.0,13.0,36,0.00,,,0.00,Wunderground v.1.15,2013-03-16 22:10:00,
2013-03-16 18:20:00,75.4,45.8,29.78,NW,305,4.0,6.0,35,0.00,,,0.00,Wunderground v.1.15,2013-03-16 22:20:00,
2013-03-16 18:30:00,75.1,45.6,29.79,West,281,5.0,5.0,35,0.00,,,0.00,Wunderground v.1.15,2013-03-16 22:30:00,
2013-03-16 18:40:00,74.8,46.1,29.79,NW,312,4.0,6.0,36,0.00,,,0.00,Wunderground v.1.15,2013-03-16 22:40:00,
2013-03-16 18:45:00,74.8,46.1,29.80,WNW,301,5.0,6.0,36,0.00,,,0.00,Wunderground v.1.15,2013-03-16 22:45:00,
2013-03-16 18:55:00,74.7,46.0,29.80,NW,315,4.0,8.0,36,0.00,,,0.00,Wunderground v.1.15,2013-03-16 22:55:00,
2013-03-16 19:05:00,74.4,45.7,29.80,WNW,290,4.0,13.0,36,0.00,,,0.00,Wunderground v.1.15,2013-03-16 23:05:00,
2013-03-16 19:10:00,74.2,45.5,29.80,WNW,290,4.0,13.0,36,0.00,,,0.00,Wunderground v.1.15,2013-03-16 23:10:00,
2013-03-16 19:15:00,74.0,46.1,29.81,NW,313,4.0,13.0,37,0.00,,,0.00,Wunderground v.1.15,2013-03-16 23:15:00,
2013-03-16 19:25:00,73.5,45.6,29.81,WNW,282,3.0,4.0,37,0.00,,,0.00,Wunderground v.1.15,2013-03-16 23:25:00,
2013-03-16 19:35:00,72.9,46.5,29.81,NW,314,2.0,3.0,39,0.00,,,0.00,Wunderground v.1.15,2013-03-16 23:35:00,
2013-03-16 19:40:00,72.4,46.0,29.81,NW,316,1.0,3.0,39,0.00,,,0.00,Wunderground v.1.15,2013-03-16 23:40:00,
2013-03-16 19:50:00,72.1,45.8,29.82,West,260,3.0,3.0,39,0.00,,,0.00,Wunderground v.1.15,2013-03-16 23:50:00,
2013-03-16 20:00:00,71.9,45.6,29.83,WNW,290,2.0,2.0,39,0.00,,,0.00,Wunderground v.1.15,2013-03-17 00:00:00,
2013-03-16 20:10:00,71.6,45.3,29.84,WNW,298,2.0,13.0,39,0.00,,,0.00,Wunderground v.1.15,2013-03-17 00:10:00,
2013-03-16 20:15:00,71.2,46.3,29.84,NW,319,2.0,13.0,41,0.00,,,0.00,Wunderground v.1.15,2013-03-17 00:15:00,
2013-03-16 20:25:00,69.8,46.3,29.85,WSW,248,1.0,1.0,43,0.00,,,0.00,Wunderground v.1.15,2013-03-17 00:25:00,
2013-03-16 20:35:00,68.4,45.6,29.86,WNW,285,0.0,1.0,44,0.00,,,0.00,Wunderground v.1.15,2013-03-17 00:35:00,
2013-03-16 20:40:00,68.9,46.1,29.86,NW,315,1.0,1.0,44,0.00,,,0.00,Wunderground v.1.15,2013-03-17 00:40:00,
2013-03-16 20:45:00,68.7,45.3,29.87,WNW,284,1.0,1.0,43,0.00,,,0.00,Wunderground v.1.15,2013-03-17 00:45:00,
2013-03-16 20:55:00,67.2,46.8,29.89,West,264,0.0,1.0,48,0.00,,,0.00,Wunderground v.1.15,2013-03-17 00:55:00,
2013-03-16 21:00:00,66.2,48.0,29.89,West,265,0.0,0.0,52,0.00,,,0.00,Wunderground v.1.15,2013-03-17 01:00:00,
2013-03-16 21:10:00,65.0,47.9,29.90,West,266,0.0,6.0,54,0.00,,,0.00,Wunderground v.1.15,2013-03-17 01:10:00,
2013-03-16 21:15:00,64.5,46.5,29.90,West,266,0.0,6.0,52,0.00,,,0.00,Wunderground v.1.15,2013-03-17 01:15:00,
2013-03-16 21:25:00,63.8,48.3,29.91,West,266,0.0,0.0,57,0.00,,,0.00,Wunderground v.1.15,2013-03-17 01:25:00,
2013-03-16 21:30:00,63.4,48.4,29.91,West,266,0.0,0.0,58,0.00,,,0.00,Wunderground v.1.15,2013-03-17 01:30:00,
2013-03-16 21:40:00,62.0,48.4,29.91,West,266,0.0,0.0,61,0.00,,,0.00,Wunderground v.1.15,2013-03-17 01:40:00,
2013-03-16 21:45:00,61.0,47.4,29.92,West,266,0.0,0.0,61,0.00,,,0.00,Wunderground v.1.15,2013-03-17 01:45:00,
2013-03-16 21:55:00,60.2,48.4,29.92,NW,324,0.0,0.0,65,0.00,,,0.00,Wunderground v.1.15,2013-03-17 01:55:00,
2013-03-16 22:05:00,59.9,48.9,29.92,NW,326,0.0,3.0,67,0.00,,,0.00,Wunderground v.1.15,2013-03-17 02:05:00,
2013-03-16 22:10:00,59.8,48.8,29.93,NW,326,0.0,3.0,67,0.00,,,0.00,Wunderground v.1.15,2013-03-17 02:10:00,
2013-03-16 22:20:00,59.6,48.6,29.93,NW,326,0.0,0.0,67,0.00,,,0.00,Wunderground v.1.15,2013-03-17 02:20:00,
2013-03-16 22:25:00,59.5,48.5,29.93,NW,326,0.0,0.0,67,0.00,,,0.00,Wunderground v.1.15,2013-03-17 02:25:00,
2013-03-16 22:35:00,59.1,48.5,29.93,NW,326,0.0,0.0,68,0.00,,,0.00,Wunderground v.1.15,2013-03-17 02:35:00,
2013-03-16 22:45:00,58.0,48.3,29.94,NW,326,0.0,0.0,70,0.00,,,0.00,Wunderground v.1.15,2013-03-17 02:45:00,
2013-03-16 22:55:00,57.2,48.3,29.94,NW,326,0.0,0.0,72,0.00,,,0.00,Wunderground v.1.15,2013-03-17 02:55:00,
2013-03-16 23:00:00,56.6,48.0,29.94,NW,324,0.0,0.0,73,0.00,,,0.00,Wunderground v.1.15,2013-03-17 03:00:00,
2013-03-16 23:10:00,55.5,47.7,29.94,NW,324,0.0,1.0,75,0.00,,,0.00,Wunderground v.1.15,2013-03-17 03:10:00,
2013-03-16 23:20:00,54.7,47.6,29.94,NW,323,0.0,0.0,77,0.00,,,0.00,Wunderground v.1.15,2013-03-17 03:20:00,
2013-03-16 23:30:00,53.9,47.5,29.95,NW,323,0.0,0.0,79,0.00,,,0.00,Wunderground v.1.15,2013-03-17 03:30:00,
2013-03-16 23:35:00,53.7,47.3,29.94,NW,323,0.0,0.0,79,0.00,,,0.00,Wunderground v.1.15,2013-03-17 03:35:00,
2013-03-16 23:45:00,53.1,47.1,29.95,WNW,301,0.0,0.0,80,0.00,,,0.00,Wunderground v.1.15,2013-03-17 03:45:00,
2013-03-16 23:55:00,52.5,46.8,29.95,WNW,301,0.0,0.0,81,0.00,,,0.00,Wunderground v.1.15,2013-03-17 03:55:00,